Hourly Weather Dzhuryn

Today, 6 May, Thursday

Time Temperature Precipitation Wind Pressure Humidity
00:00 +10°C° 0 mm 7 mps 733 mmHg 74%
01:00 +10°C° 0 mm 7 mps 733 mmHg 75%
02:00 +9°C° 0 mm 7 mps 733 mmHg 76%
03:00 +9°C° 0.1 mm 6 mps 733 mmHg 77%
04:00 +9°C° 0.1 mm 6 mps 733 mmHg 77%
05:00 +8°C° 0.1 mm 5 mps 733 mmHg 78%
06:00 +9°C° 0.2 mm 5 mps 734 mmHg 79%
07:00 +9°C° 0.2 mm 6 mps 734 mmHg 81%
08:00 +9°C° 0.2 mm 6 mps 735 mmHg 83%
09:00 +9°C° 0 mm 6 mps 736 mmHg 79%
10:00 +9°C° 0 mm 5 mps 737 mmHg 75%
11:00 +8°C° 0 mm 5 mps 738 mmHg 71%
12:00 +10°C° 0 mm 5 mps 738 mmHg 63%
13:00 +13°C° 0 mm 5 mps 738 mmHg 55%
14:00 +14°C° 0 mm 5 mps 738 mmHg 47%
15:00 +14°C° 0 mm 4 mps 738 mmHg 47%
16:00 +14°C° 0 mm 4 mps 738 mmHg 47%
17:00 +14°C° 0 mm 3 mps 739 mmHg 47%
18:00 +13°C° 0 mm 2 mps 739 mmHg 50%
19:00 +12°C° 0 mm 2 mps 739 mmHg 54%
20:00 +10°C° 0 mm 1 mps 739 mmHg 57%
21:00 +9°C° 0 mm 2 mps 739 mmHg 60%
22:00 +8°C° 0 mm 2 mps 739 mmHg 62%
23:00 +8°C° 0 mm 3 mps 739 mmHg 65%

Tomorrow, 7 May, Friday

Time Temperature Precipitation Wind Pressure Humidity
00:00 +8°C° 0 mm 3 mps 739 mmHg 68%
01:00 +7°C° 0 mm 4 mps 738 mmHg 72%
02:00 +7°C° 0 mm 4 mps 738 mmHg 75%
03:00 +7°C° 0 mm 5 mps 738 mmHg 77%
04:00 +8°C° 0 mm 5 mps 738 mmHg 80%
05:00 +8°C° 0 mm 6 mps 737 mmHg 82%
06:00 +9°C° 0 mm 6 mps 737 mmHg 83%
07:00 +10°C° 0 mm 5 mps 737 mmHg 84%
08:00 +12°C° 0 mm 5 mps 737 mmHg 85%
09:00 +14°C° 0.1 mm 5 mps 737 mmHg 76%
10:00 +16°C° 0.1 mm 5 mps 737 mmHg 67%
11:00 +20°C° 0.1 mm 5 mps 737 mmHg 58%
12:00 +20°C° 0 mm 5 mps 737 mmHg 57%
13:00 +20°C° 0 mm 5 mps 736 mmHg 56%
14:00 +20°C° 0 mm 4 mps 736 mmHg 54%
15:00 +20°C° 0.1 mm 5 mps 736 mmHg 59%
16:00 +19°C° 0.1 mm 5 mps 736 mmHg 63%
17:00 +17°C° 0.1 mm 5 mps 736 mmHg 67%
18:00 +17°C° 0 mm 4 mps 736 mmHg 71%
19:00 +14°C° 0 mm 4 mps 737 mmHg 76%
20:00 +13°C° 0 mm 3 mps 737 mmHg 80%
21:00 +12°C° 0 mm 3 mps 738 mmHg 81%
22:00 +12°C° 0 mm 3 mps 738 mmHg 82%
23:00 +12°C° 0 mm 3 mps 738 mmHg 83%

Day after tomorrow, 8 May, Saturday

Time Temperature Precipitation Wind Pressure Humidity
00:00 +11°C° 0 mm 3 mps 739 mmHg 84%
01:00 +10°C° 0 mm 3 mps 740 mmHg 85%
02:00 +10°C° 0 mm 3 mps 740 mmHg 85%
03:00 +9°C° 0 mm 3 mps 740 mmHg 86%
04:00 +9°C° 0 mm 2 mps 741 mmHg 88%
05:00 +9°C° 0 mm 1 mps 741 mmHg 89%
06:00 +10°C° 0 mm 1 mps 742 mmHg 83%
07:00 +12°C° 0 mm 1 mps 742 mmHg 76%
08:00 +13°C° 0 mm 1 mps 742 mmHg 70%
09:00 +14°C° 0 mm 1 mps 742 mmHg 65%
10:00 +16°C° 0 mm 2 mps 742 mmHg 60%
11:00 +17°C° 0 mm 2 mps 742 mmHg 56%
12:00 +18°C° 0 mm 3 mps 742 mmHg 55%
13:00 +19°C° 0 mm 3 mps 742 mmHg 55%
14:00 +20°C° 0 mm 4 mps 741 mmHg 55%
15:00 +20°C° 0 mm 4 mps 741 mmHg 58%
16:00 +20°C° 0 mm 4 mps 741 mmHg 60%
17:00 +20°C° 0 mm 4 mps 740 mmHg 63%
18:00 +19°C° 0 mm 4 mps 740 mmHg 70%
19:00 +17°C° 0 mm 4 mps 740 mmHg 76%
20:00 +16°C° 0 mm 3 mps 740 mmHg 83%
21:00 +15°C° 0 mm 4 mps 740 mmHg 83%
22:00 +14°C° 0 mm 4 mps 739 mmHg 84%
23:00 +14°C° 0 mm 5 mps 739 mmHg 84%

9 May, Sunday

Time Temperature Precipitation Wind Pressure Humidity
00:00 +14°C° 0 mm 5 mps 739 mmHg 85%
01:00 +14°C° 0 mm 4 mps 739 mmHg 86%
02:00 +14°C° 0 mm 4 mps 739 mmHg 87%

10 May, Monday

Time Temperature Precipitation Wind Pressure Humidity

11 May, Tuesday

Time Temperature Precipitation Wind Pressure Humidity
Show more